FW6482 Weather Reports


Display with metric or nautical units.
time (UTC)temp
F
wind
direction
speed
MPH
gust
MPH
rain 1hr
in
rain 24hr
in
rain mn
in
humidity
%
barometer
mb
20260831224520 59 242 2.0 4.0 0.01 0.50 0.01 93 1015.7
20260831223023 59 242 3.0 11.0 0.00 0.49 0.00 93 1015.7
20260831221518 58 236 5.0 12.0 0.00 0.49 0.00 93 1015.7
20260831220022 58 238 4.0 8.0 0.00 0.49 0.00 92 1015.6
20260831214512 58 239 4.0 8.0 0.00 0.49 0.49 92 1015.4
20260831213011 58 246 4.0 8.0 0.00 0.49 0.49 92 1015.3
20260831211510 58 236 4.0 9.0 0.00 0.49 0.49 92 1015.2
20260831210008 58 252 4.0 7.0 0.00 0.49 0.49 92 1015.1
20260831204506 58 244 2.0 5.0 0.00 0.49 0.49 92 1014.9
20260831203004 58 246 3.0 7.0 0.00 0.49 0.49 92 1014.8
20260831201502 58 245 2.0 7.0 0.00 0.49 0.49 92 1014.7
20260831200000 59 247 3.0 7.0 0.00 0.49 0.49 91 1014.5
20260831194612 59 248 3.0 7.0 0.00 0.49 0.49 92 1014.3
20260831193056 60 248 2.0 8.0 0.00 0.49 0.49 92 1014.1
20260831191553 60 248 4.0 7.0 0.00 0.49 0.49 92 1013.9
20260831190104 60 240 3.0 8.0 0.00 0.49 0.49 92 1013.6
20260831184551 60 245 3.0 9.0 0.00 0.49 0.49 92 1013.5
20260831183048 60 248 4.0 11.0 0.03 0.49 0.49 92 1013.3
20260831181547 60 227 2.0 8.0 0.03 0.49 0.49 91 1013.0
20260831180054 60 242 4.0 14.0 0.03 0.49 0.49 90 1012.6
20260831174539 61 265 8.0 21.0 0.04 0.48 0.48 89 1012.7
20260831173036 62 275 1.0 6.0 0.02 0.46 0.46 89 1012.3
20260831171535 62 242 2.0 10.0 0.09 0.46 0.46 89 1012.1
20260831170033 62 239 4.0 9.0 0.09 0.46 0.46 88 1012.1
20260831164534 63 307 1.0 4.0 0.07 0.44 0.44 88 1011.9
20260831163031 64 307 2.0 5.0 0.07 0.44 0.44 87 1011.8
20260831161529 63 242 2.0 7.0 0.00 0.37 0.37 86 1011.4
20260831160031 63 252 3.0 12.0 0.00 0.37 0.37 85 1011.4
20260831154527 63 266 5.0 14.0 0.01 0.37 0.37 86 1011.2
20260831153025 63 234 5.0 13.0 0.02 0.37 0.37 88 1011.0
20260831151528 63 224 4.0 13.0 0.21 0.37 0.37 91 1010.8
20260831150023 62 236 6.0 15.0 0.23 0.37 0.37 91 1010.7
20260831144523 61 226 4.0 7.0 0.22 0.36 0.36 88 1010.9
20260831143021 63 265 3.0 11.0 0.20 0.35 0.35 84 1010.5
20260831141519 66 243 4.0 9.0 0.01 0.15 0.16 75 1010.2
20260831140025 70 252 7.0 16.0 0.00 0.14 0.14 70 1010.2
20260831134519 70 246 4.0 9.0 0.02 0.14 0.14 74 1009.6
20260831133020 70 240 5.0 12.0 0.13 0.14 0.14 79 1009.7
20260831131516 66 234 3.0 10.0 0.13 0.14 0.14 89 1009.5
20260831130015 64 219 5.0 12.0 0.13 0.14 0.14 90 1009.8
20260831124518 64 213 9.0 25.0 0.11 0.12 0.12 81 1010.3
20260831123011 70 261 7.0 14.0 0.00 0.01 0.01 63 1009.4
20260831121510 70 186 8.0 14.0 0.00 0.01 0.01 63 1009.3
20260831120011 70 237 7.0 12.0 0.00 0.01 0.01 65 1009.5
20260831114509 70 223 5.0 14.0 0.01 0.01 0.01 67 1009.6
20260831113009 69 225 7.0 16.0 0.01 0.01 0.01 71 1009.8
20260831111508 67 242 6.0 11.0 0.01 0.01 0.01 81 1009.7
20260831110007 66 219 8.0 25.0 0.01 0.01 0.01 76 1009.8
20260831104507 70 236 9.0 20.0 0.00 0.00 0.00 61 1009.4
20260831103006 69 215 6.0 16.0 0.00 0.00 0.00 62 1009.3
20260831101509 70 206 9.0 17.0 0.00 0.00 0.00 60 1009.2
20260831100004 70 232 8.0 19.0 0.00 0.00 0.00 61 1009.3
20260831094502 69 249 8.0 17.0 0.00 0.00 0.00 65 1009.3
20260831093100 69 219 8.0 15.0 0.00 0.00 0.00 67 1009.4
20260831091604 68 230 9.0 18.0 0.00 0.00 0.00 67 1009.7
20260831090058 69 211 9.0 26.0 0.00 0.00 0.00 61 1009.4
20260831084600 69 256 7.0 15.0 0.00 0.00 0.00 60 1009.4
20260831083053 69 209 10.0 21.0 0.00 0.00 0.00 61 1009.4
20260831081600 69 214 9.0 16.0 0.00 0.00 0.00 63 1009.6
20260831080113 68 218 10.0 20.0 0.00 0.00 0.00 68 1009.3
20260831074550 67 244 6.0 14.0 0.00 0.00 0.00 72 1009.3
20260831073108 67 207 7.0 15.0 0.00 0.00 0.00 75 1009.3
20260831071550 66 225 6.0 11.0 0.00 0.00 0.00 77 1009.3
20260831070039 65 210 4.0 10.0 0.00 0.00 0.00 80 1009.4
20260831064541 64 172 5.0 11.0 0.00 0.00 0.00 83 1009.3
20260831063042 63 207 3.0 8.0 0.00 0.00 0.00 83 1009.3
20260831061535 63 186 3.0 8.0 0.00 0.00 0.00 84 1009.2
20260831060034 62 186 5.0 7.0 0.00 0.00 0.00 86 1009.1
20260831054530 61 203 3.0 6.0 0.00 0.00 0.00 87 1009.0
20260831053025 61 205 3.0 5.0 0.00 0.00 0.00 87 1009.0
20260831051525 61 209 2.0 5.0 0.00 0.00 0.00 86 1009.1
20260831050017 61 214 3.0 6.0 0.00 0.00 0.00 85 1009.1
20260831044516 61 217 3.0 7.0 0.00 0.00 0.00 85 1008.9
20260831043014 61 217 4.0 8.0 0.00 0.00 0.00 86 1008.8
20260831041513 61 182 4.0 7.0 0.00 0.00 0.00 87 1008.6
20260831040012 61 212 4.0 7.0 0.00 0.00 0.00 88 1008.6
20260831034511 61 217 4.0 8.0 0.00 0.00 0.00 88 1008.6
20260831033010 62 210 4.0 8.0 0.00 0.00 0.00 89 1008.6
20260831031509 62 221 5.0 9.0 0.00 0.00 0.00 88 1008.5
20260831030009 63 232 4.0 9.0 0.00 0.00 0.00 87 1008.6
20260831024505 63 217 5.0 10.0 0.00 0.00 0.00 87 1008.5
20260831023002 63 217 4.0 10.0 0.00 0.00 0.00 86 1008.5
20260831021503 64 219 5.0 12.0 0.00 0.00 0.00 84 1008.6
20260831014557 65 220 6.0 11.0 0.00 0.00 0.00 79 1008.3
20260831013105 65 236 6.0 14.0 0.00 0.00 0.00 78 1008.3
20260831011554 65 198 7.0 11.0 0.00 0.00 0.00 76 1008.4
20260831010116 65 198 4.0 9.0 0.00 0.00 0.00 74 1008.1
20260831004558 65 189 4.0 9.0 0.00 0.00 0.00 72 1008.5
20260831003102 65 213 5.0 10.0 0.00 0.00 0.00 72 1008.6
20260831001548 65 188 6.0 11.0 0.00 0.00 0.00 72 1008.6
20260831000047 65 198 3.0 8.0 0.00 0.00 0.00 72 1008.6
20260830234546 65 196 5.0 7.0 0.00 0.00 0.00 72 1008.6
20260830233043 65 212 4.0 9.0 0.00 0.00 0.00 73 1008.7
20260830231545 64 223 4.0 8.0 0.00 0.00 0.00 73 1008.8
20260830230041 64 203 3.0 7.0 0.00 0.00 0.00 73 1008.8